Powrót do katalogu

MISR-C-2

AktywnyNaukaVLEO
NORAD 68633·PAYLOAD·🇺🇸 United States

Wystrzelony Apr 7, 2026 z Vandenberg Space Force Base

Loading…

Następne Przeloty (najbliższe 24 godziny)

TLE

ŚwieżeSource: Space-Track

Epoka: Sep 14, 2026, 11:57 UTC

1 68633U 26074G   26257.49813829  .00009871  00000-0  36786-3 0  9999
2 68633  60.0214 193.7234 0035196  91.7336 268.7778 15.27507258 24422

Śledź MISR-C-2 w czasie rzeczywistym z AllMySat

Download on the App Store